Time,TemperatureF,DewpointF,PressureIn,WindDirection,WindDirectionDegrees,WindSpeedMPH,WindSpeedGustMPH,Humidity,HourlyPrecipIn,Conditions,Clouds,dailyrainin,SoftwareType,DateUTC
2013-01-19 00:02:00,31.0,11.0,-100.00,South,190,32.0,42.0,42,0.00,,,-99.99,,2013-01-19 07:02:00,
2013-01-19 00:12:00,31.0,11.0,-100.00,SSE,160,37.0,46.0,42,0.00,,,-99.99,,2013-01-19 07:12:00,
2013-01-19 00:22:00,31.0,11.0,-100.00,SSW,205,37.0,49.0,42,0.00,,,-99.99,,2013-01-19 07:22:00,
2013-01-19 00:32:00,31.0,11.0,-100.00,SW,220,35.0,49.0,42,0.00,,,-99.99,,2013-01-19 07:32:00,
2013-01-19 00:52:00,30.0,10.0,-100.00,SSW,205,33.0,49.0,42,0.00,,,-99.99,,2013-01-19 07:52:00,
2013-01-19 01:02:00,30.0,11.0,-100.00,SW,215,35.0,46.0,43,0.00,,,-99.99,,2013-01-19 08:02:00,
2013-01-19 01:12:00,30.0,10.0,-100.00,South,180,37.0,46.0,43,0.00,,,-99.99,,2013-01-19 08:12:00,
2013-01-19 01:22:00,29.0,10.0,-100.00,SW,225,34.0,50.0,44,0.00,,,-99.99,,2013-01-19 08:22:00,
2013-01-19 01:32:00,29.0,10.0,-100.00,South,190,35.0,48.0,45,0.00,,,-99.99,,2013-01-19 08:32:00,
2013-01-19 01:42:00,29.0,10.0,-100.00,SW,225,34.0,46.0,45,0.00,,,-99.99,,2013-01-19 08:42:00,
2013-01-19 01:52:00,31.0,11.0,-100.00,South,170,33.0,45.0,43,0.00,,,-99.99,,2013-01-19 08:52:00,
2013-01-19 02:02:00,29.0,10.0,-100.00,South,180,27.0,37.0,44,0.00,,,-99.99,,2013-01-19 09:02:00,
2013-01-19 02:12:00,29.0,10.0,-100.00,SSW,195,27.0,34.0,44,0.00,,,-99.99,,2013-01-19 09:12:00,
2013-01-19 02:22:00,28.0,10.0,-100.00,WSW,245,27.0,37.0,45,0.00,,,-99.99,,2013-01-19 09:22:00,
2013-01-19 02:32:00,30.0,11.0,-100.00,SSW,200,30.0,37.0,44,0.00,,,-99.99,,2013-01-19 09:32:00,
2013-01-19 02:42:00,29.0,10.0,-100.00,SSW,200,27.0,37.0,44,0.00,,,-99.99,,2013-01-19 09:42:00,
2013-01-19 02:52:00,28.0,10.0,-100.00,South,190,32.0,47.0,44,0.00,,,-99.99,,2013-01-19 09:52:00,
2013-01-19 03:02:00,29.0,10.0,-100.00,SSW,210,30.0,43.0,45,0.00,,,-99.99,,2013-01-19 10:02:00,
2013-01-19 03:12:00,28.0,10.0,-100.00,West,265,32.0,40.0,45,0.00,,,-99.99,,2013-01-19 10:12:00,
2013-01-19 03:22:00,29.0,10.0,-100.00,SE,140,30.0,42.0,45,0.00,,,-99.99,,2013-01-19 10:22:00,
2013-01-19 03:32:00,28.0,9.0,-100.00,SSE,160,33.0,41.0,45,0.00,,,-99.99,,2013-01-19 10:32:00,
2013-01-19 03:42:00,28.0,10.0,-100.00,SW,215,29.0,38.0,45,0.00,,,-99.99,,2013-01-19 10:42:00,
2013-01-19 03:52:00,30.0,11.0,-100.00,South,175,30.0,39.0,44,0.00,,,-99.99,,2013-01-19 10:52:00,
2013-01-19 04:03:00,31.0,11.0,-100.00,SSE,150,32.0,44.0,42,0.00,,,-99.99,,2013-01-19 11:03:00,
2013-01-19 04:12:00,32.0,11.0,-100.00,SE,135,35.0,49.0,42,0.00,,,-99.99,,2013-01-19 11:12:00,
2013-01-19 05:52:00,28.0,9.0,-100.00,SW,225,34.0,44.0,44,0.00,,,-99.99,,2013-01-19 12:52:00,
2013-01-19 06:03:00,28.0,9.0,-100.00,South,175,28.0,39.0,44,0.00,,,-99.99,,2013-01-19 13:03:00,
2013-01-19 06:12:00,28.0,9.0,-100.00,SW,215,26.0,39.0,44,0.00,,,-99.99,,2013-01-19 13:12:00,
2013-01-19 06:22:00,28.0,9.0,-100.00,SW,220,31.0,39.0,44,0.00,,,-99.99,,2013-01-19 13:22:00,
2013-01-19 06:33:00,28.0,9.0,-100.00,South,175,32.0,38.0,44,0.00,,,-99.99,,2013-01-19 13:33:00,
2013-01-19 06:42:00,28.0,9.0,-100.00,SW,225,31.0,41.0,44,0.00,,,-99.99,,2013-01-19 13:42:00,
2013-01-19 06:52:00,27.0,9.0,-100.00,SSE,165,34.0,43.0,44,0.00,,,-99.99,,2013-01-19 13:52:00,
2013-01-19 07:02:00,27.0,9.0,-100.00,South,175,34.0,41.0,44,0.00,,,-99.99,,2013-01-19 14:02:00,
2013-01-19 07:12:00,28.0,9.0,-100.00,SSW,200,34.0,42.0,44,0.00,,,-99.99,,2013-01-19 14:12:00,
2013-01-19 07:23:00,28.0,9.0,-100.00,SSE,165,33.0,42.0,44,0.00,,,-99.99,,2013-01-19 14:23:00,
2013-01-19 07:33:00,27.0,9.0,-100.00,SE,145,34.0,44.0,44,0.00,,,-99.99,,2013-01-19 14:33:00,
2013-01-19 07:42:00,28.0,9.0,-100.00,SSE,160,37.0,45.0,44,0.00,,,-99.99,,2013-01-19 14:42:00,
2013-01-19 07:53:00,28.0,9.0,-100.00,South,175,37.0,49.0,44,0.00,,,-99.99,,2013-01-19 14:53:00,
2013-01-19 08:03:00,29.0,9.0,-100.00,SSE,150,37.0,49.0,44,0.00,,,-99.99,,2013-01-19 15:03:00,
2013-01-19 08:12:00,28.0,9.0,-100.00,SSW,210,36.0,46.0,44,0.00,,,-99.99,,2013-01-19 15:12:00,
2013-01-19 08:22:00,28.0,9.0,-100.00,SSW,205,40.0,49.0,44,0.00,,,-99.99,,2013-01-19 15:22:00,
2013-01-19 08:33:00,29.0,9.0,-100.00,South,180,40.0,51.0,44,0.00,,,-99.99,,2013-01-19 15:33:00,
2013-01-19 08:43:00,29.0,9.0,-100.00,SSE,165,39.0,49.0,43,0.00,,,-99.99,,2013-01-19 15:43:00,
2013-01-19 08:53:00,29.0,10.0,-100.00,SW,220,40.0,49.0,43,0.00,,,-99.99,,2013-01-19 15:53:00,
2013-01-19 09:03:00,30.0,10.0,-100.00,SW,220,35.0,47.0,43,0.00,,,-99.99,,2013-01-19 16:03:00,
2013-01-19 09:12:00,30.0,10.0,-100.00,SSW,210,34.0,45.0,42,0.00,,,-99.99,,2013-01-19 16:12:00,
2013-01-19 09:23:00,31.0,11.0,-100.00,SSW,210,34.0,42.0,41,0.00,,,-99.99,,2013-01-19 16:23:00,
2013-01-19 09:33:00,32.0,11.0,-100.00,SSW,210,34.0,45.0,40,0.00,,,-99.99,,2013-01-19 16:33:00,
2013-01-19 09:43:00,34.0,12.0,-100.00,SSW,195,30.0,40.0,39,0.00,,,-99.99,,2013-01-19 16:43:00,
2013-01-19 09:53:00,35.0,12.0,-100.00,South,190,30.0,44.0,38,0.00,,,-99.99,,2013-01-19 16:53:00,
2013-01-19 10:02:00,34.0,11.0,-100.00,SSW,200,38.0,45.0,38,0.00,,,-99.99,,2013-01-19 17:02:00,
2013-01-19 10:17:00,35.0,12.0,-100.00,SSW,210,34.0,45.0,37,0.00,,,-99.99,,2013-01-19 17:17:00,
2013-01-19 10:28:00,35.0,11.0,-100.00,SSE,160,37.0,47.0,37,0.00,,,-99.99,,2013-01-19 17:28:00,
2013-01-19 10:35:00,35.0,12.0,-100.00,South,175,33.0,43.0,37,0.00,,,-99.99,,2013-01-19 17:35:00,
2013-01-19 10:53:00,36.0,12.0,-100.00,SW,220,34.0,42.0,36,0.00,,,-99.99,,2013-01-19 17:53:00,
2013-01-19 11:13:00,36.0,12.0,-100.00,South,190,32.0,40.0,35,0.00,,,-99.99,,2013-01-19 18:13:00,
2013-01-19 11:25:00,36.0,11.0,-100.00,SSW,210,34.0,47.0,35,0.00,,,-99.99,,2013-01-19 18:25:00,
2013-01-19 11:34:00,36.0,11.0,-100.00,SSE,165,30.0,45.0,35,0.00,,,-99.99,,2013-01-19 18:34:00,
2013-01-19 11:44:00,37.0,11.0,-100.00,South,180,32.0,46.0,34,0.00,,,-99.99,,2013-01-19 18:44:00,
2013-01-19 11:54:00,36.0,11.0,-100.00,South,190,37.0,48.0,34,0.00,,,-99.99,,2013-01-19 18:54:00,
2013-01-19 12:07:00,37.0,11.0,-100.00,South,190,39.0,49.0,34,0.00,,,-99.99,,2013-01-19 19:07:00,
2013-01-19 12:18:00,37.0,11.0,-100.00,South,170,38.0,52.0,34,0.00,,,-99.99,,2013-01-19 19:18:00,
2013-01-19 12:28:00,37.0,11.0,-100.00,SSE,155,39.0,52.0,34,0.00,,,-99.99,,2013-01-19 19:28:00,
2013-01-19 12:38:00,38.0,12.0,-100.00,South,175,34.0,57.0,33,0.00,,,-99.99,,2013-01-19 19:38:00,
2013-01-19 12:45:00,38.0,12.0,-100.00,SSW,200,31.0,45.0,33,0.00,,,-99.99,,2013-01-19 19:45:00,
2013-01-19 12:54:00,37.0,11.0,-100.00,South,180,37.0,48.0,33,0.00,,,-99.99,,2013-01-19 19:54:00,
2013-01-19 13:09:00,38.0,12.0,-100.00,SW,215,32.0,50.0,33,0.00,,,-99.99,,2013-01-19 20:09:00,
2013-01-19 13:24:00,38.0,12.0,-100.00,SW,215,32.0,44.0,33,0.00,,,-99.99,,2013-01-19 20:24:00,
2013-01-19 13:37:00,38.0,12.0,-100.00,South,190,32.0,40.0,32,0.00,,,-99.99,,2013-01-19 20:37:00,
2013-01-19 13:45:00,38.0,11.0,-100.00,SSW,195,37.0,47.0,32,0.00,,,-99.99,,2013-01-19 20:45:00,
2013-01-19 13:54:00,39.0,11.0,-100.00,SSE,165,32.0,45.0,31,0.00,,,-99.99,,2013-01-19 20:54:00,
2013-01-19 14:06:00,39.0,11.0,-100.00,South,185,36.0,47.0,31,0.00,,,-99.99,,2013-01-19 21:06:00,
2013-01-19 14:14:00,39.0,11.0,-100.00,SSW,200,31.0,47.0,31,0.00,,,-99.99,,2013-01-19 21:14:00,
2013-01-19 14:25:00,40.0,12.0,-100.00,SW,235,26.0,33.0,30,0.00,,,-99.99,,2013-01-19 21:25:00,
2013-01-19 14:41:00,40.0,11.0,-100.00,SSW,205,29.0,38.0,30,0.00,,,-99.99,,2013-01-19 21:41:00,
2013-01-19 14:48:00,39.0,11.0,-100.00,SW,215,30.0,42.0,30,0.00,,,-99.99,,2013-01-19 21:48:00,
2013-01-19 14:55:00,39.0,10.0,-100.00,SW,220,29.0,40.0,30,0.00,,,-99.99,,2013-01-19 21:55:00,
2013-01-19 15:16:00,38.0,10.0,-100.00,WSW,245,26.0,40.0,30,0.00,,,-99.99,,2013-01-19 22:16:00,
2013-01-19 15:25:00,38.0,10.0,-100.00,SSW,200,26.0,35.0,30,0.00,,,-99.99,,2013-01-19 22:25:00,
2013-01-19 15:34:00,38.0,10.0,-100.00,SSW,200,21.0,29.0,31,0.00,,,-99.99,,2013-01-19 22:34:00,
2013-01-19 15:45:00,39.0,11.0,-100.00,SSW,195,24.0,29.0,30,0.00,,,-99.99,,2013-01-19 22:45:00,
2013-01-19 15:54:00,38.0,10.0,-100.00,SSW,205,26.0,35.0,30,0.00,,,-99.99,,2013-01-19 22:54:00,
2013-01-19 16:12:00,38.0,10.0,-100.00,SSW,205,23.0,29.0,30,0.00,,,-99.99,,2013-01-19 23:12:00,
2013-01-19 16:25:00,37.0,10.0,-100.00,SW,220,19.0,27.0,31,0.00,,,-99.99,,2013-01-19 23:25:00,
2013-01-19 16:34:00,37.0,10.0,-100.00,SW,230,18.0,26.0,31,0.00,,,-99.99,,2013-01-19 23:34:00,
2013-01-19 16:58:00,36.0,9.0,-100.00,SSW,210,21.0,27.0,32,0.00,,,-99.99,,2013-01-19 23:58:00,
2013-01-19 17:08:00,36.0,9.0,-100.00,SW,230,20.0,25.0,32,0.00,,,-99.99,,2013-01-20 00:08:00,
2013-01-19 17:15:00,36.0,9.0,-100.00,SSW,195,19.0,25.0,32,0.00,,,-99.99,,2013-01-20 00:15:00,
2013-01-19 17:24:00,35.0,9.0,-100.00,WSW,255,16.0,24.0,32,0.00,,,-99.99,,2013-01-20 00:24:00,
2013-01-19 17:35:00,35.0,9.0,-100.00,SSW,210,16.0,22.0,33,0.00,,,-99.99,,2013-01-20 00:35:00,
2013-01-19 17:45:00,35.0,9.0,-100.00,SW,220,22.0,27.0,33,0.00,,,-99.99,,2013-01-20 00:45:00,
2013-01-19 17:53:00,34.0,9.0,-100.00,SW,235,21.0,28.0,33,0.00,,,-99.99,,2013-01-20 00:53:00,
2013-01-19 18:03:00,34.0,9.0,-100.00,SSW,210,23.0,32.0,33,0.00,,,-99.99,,2013-01-20 01:03:00,
2013-01-19 18:25:00,34.0,9.0,-100.00,South,190,26.0,37.0,33,0.00,,,-99.99,,2013-01-20 01:25:00,
2013-01-19 18:35:00,35.0,9.0,-100.00,SW,220,29.0,35.0,33,0.00,,,-99.99,,2013-01-20 01:35:00,
2013-01-19 18:45:00,34.0,8.0,-100.00,SW,215,28.0,39.0,33,0.00,,,-99.99,,2013-01-20 01:45:00,
2013-01-19 18:57:00,34.0,8.0,-100.00,South,170,27.0,34.0,33,0.00,,,-99.99,,2013-01-20 01:57:00,
2013-01-19 19:07:00,34.0,8.0,-100.00,SSE,165,27.0,39.0,33,0.00,,,-99.99,,2013-01-20 02:07:00,
2013-01-19 19:14:00,34.0,8.0,-100.00,SSE,160,30.0,39.0,34,0.00,,,-99.99,,2013-01-20 02:14:00,
2013-01-19 19:25:00,34.0,8.0,-100.00,SSW,195,31.0,39.0,34,0.00,,,-99.99,,2013-01-20 02:25:00,
2013-01-19 19:35:00,33.0,8.0,-100.00,SW,220,28.0,40.0,34,0.00,,,-99.99,,2013-01-20 02:35:00,
2013-01-19 19:44:00,34.0,8.0,-100.00,SSW,200,32.0,43.0,34,0.00,,,-99.99,,2013-01-20 02:44:00,
2013-01-19 19:55:00,33.0,8.0,-100.00,SW,225,31.0,44.0,34,0.00,,,-99.99,,2013-01-20 02:55:00,
2013-01-19 20:07:00,34.0,9.0,-100.00,South,190,32.0,41.0,34,0.00,,,-99.99,,2013-01-20 03:07:00,
2013-01-19 20:14:00,33.0,8.0,-100.00,SW,215,30.0,41.0,34,0.00,,,-99.99,,2013-01-20 03:14:00,
2013-01-19 20:24:00,33.0,8.0,-100.00,SSW,195,29.0,41.0,34,0.00,,,-99.99,,2013-01-20 03:24:00,
2013-01-19 20:37:00,33.0,8.0,-100.00,South,190,29.0,39.0,34,0.00,,,-99.99,,2013-01-20 03:37:00,
2013-01-19 20:45:00,33.0,9.0,-100.00,SW,225,29.0,37.0,34,0.00,,,-99.99,,2013-01-20 03:45:00,
2013-01-19 20:53:00,33.0,8.0,-100.00,SSW,205,26.0,40.0,34,0.00,,,-99.99,,2013-01-20 03:53:00,
2013-01-19 21:04:00,34.0,9.0,-100.00,SSW,205,31.0,40.0,34,0.00,,,-99.99,,2013-01-20 04:04:00,
2013-01-19 21:14:00,34.0,9.0,-100.00,SW,225,32.0,42.0,34,0.00,,,-99.99,,2013-01-20 04:14:00,
2013-01-19 21:24:00,33.0,9.0,-100.00,South,190,28.0,34.0,34,0.00,,,-99.99,,2013-01-20 04:24:00,
2013-01-19 21:35:00,33.0,9.0,-100.00,SW,220,27.0,37.0,35,0.00,,,-99.99,,2013-01-20 04:35:00,
2013-01-19 21:44:00,33.0,9.0,-100.00,SW,220,27.0,38.0,35,0.00,,,-99.99,,2013-01-20 04:44:00,
2013-01-19 21:54:00,34.0,9.0,-100.00,SW,215,30.0,45.0,35,0.00,,,-99.99,,2013-01-20 04:54:00,
2013-01-19 22:04:00,34.0,9.0,-100.00,South,180,34.0,45.0,34,0.00,,,-99.99,,2013-01-20 05:04:00,
2013-01-19 22:12:00,34.0,9.0,-100.00,South,180,32.0,45.0,35,0.00,,,-99.99,,2013-01-20 05:12:00,
2013-01-19 22:22:00,34.0,9.0,-100.00,SW,215,29.0,45.0,35,0.00,,,-99.99,,2013-01-20 05:22:00,
2013-01-19 22:32:00,33.0,9.0,-100.00,SSW,210,31.0,39.0,35,0.00,,,-99.99,,2013-01-20 05:32:00,
2013-01-19 22:42:00,33.0,9.0,-100.00,SSW,200,27.0,37.0,35,0.00,,,-99.99,,2013-01-20 05:42:00,
2013-01-19 22:53:00,33.0,9.0,-100.00,SW,220,29.0,35.0,35,0.00,,,-99.99,,2013-01-20 05:53:00,
2013-01-19 23:02:00,33.0,9.0,-100.00,SW,215,30.0,38.0,35,0.00,,,-99.99,,2013-01-20 06:02:00,
2013-01-19 23:12:00,32.0,9.0,-100.00,SW,215,27.0,38.0,36,0.00,,,-99.99,,2013-01-20 06:12:00,
2013-01-19 23:22:00,33.0,9.0,-100.00,SSW,195,32.0,42.0,36,0.00,,,-99.99,,2013-01-20 06:22:00,
2013-01-19 23:33:00,32.0,9.0,-100.00,South,170,33.0,42.0,36,0.00,,,-99.99,,2013-01-20 06:33:00,
2013-01-19 23:42:00,32.0,9.0,-100.00,SW,225,30.0,44.0,36,0.00,,,-99.99,,2013-01-20 06:42:00,
2013-01-19 23:52:00,32.0,9.0,-100.00,SSW,210,31.0,40.0,36,0.00,,,-99.99,,2013-01-20 06:52:00,